Tracking 28790 objects as of 19-Apr-2024
HD Live streaming from Space Station
objects crossing your sky now

COSMOS 1823 DEB

Track COSMOS 1823 DEB now!
10-day predictions


NORAD ID: 39825
Int'l Code: 1987-020EZ
Perigee: 1,481.5 km
Apogee: 1,522.1 km
Inclination: 73.6 °
Period: 115.9 minutes
Semi major axis: 7872 km
RCS: Unknown
Launch date: February 20, 1987
Source: Commonwealth of Independent States (former USSR) (CIS)
Launch site: PLESETSK MISSILE AND SPACE COMPLEX (PKMTR)

Note: This is SATELLITE DEBRIS
Your satellite tracking list
Your tracking list is empty




NASA's NSSDC Master Catalog

Two Line Element Set (TLE):
1 39825U 87020EZ  24099.51356715  .00000037  00000-0  39574-3 0  9992
2 39825  73.6060   2.1716 0025789 272.3451 268.1343 12.42818371889394
Source of the keplerian elements: AFSPC